EZY3YB EDDB-ESSA

Flight info

Callsign EZY3YB
Flight time N/A
Altitude 35000
Route GERGA3Z GERGA M725 RENKI Y89 USEDU DCT BANUB DCT POKEN DCT VIBAR Z227 NILUG
Aircraft A21N/M-SDE2E3FGHIRWXY/LB1

Departure

Time 2026-05-05 07:03
Airport Berlin Brandenburg Airport (EDDB)

Arrival

Time N/A
Airport Stockholm-Arlanda Airport (ESSA)
Time Latitude Longitude Altitude Speed Heading
2026-05-05 06:47 52.36154 13.51416 155 ft 0 kts 339°
2026-05-05 06:53 52.36138 13.51426 155 ft 3 kts 339°
2026-05-05 06:54 52.36113 13.51441 155 ft 2 kts 339°
2026-05-05 06:54 52.36093 13.51454 156 ft 2 kts 331°
2026-05-05 06:54 52.36077 13.51480 155 ft 3 kts 274°
2026-05-05 06:54 52.36082 13.51518 155 ft 2 kts 249°
2026-05-05 06:55 52.36085 13.51530 155 ft 21 kts 249°
2026-05-05 06:57 52.36054 13.51395 147 ft 18 kts 248°
2026-05-05 06:57 52.36012 13.51224 155 ft 14 kts 248°
2026-05-05 06:57 52.35981 13.51093 155 ft 11 kts 248°
2026-05-05 06:58 52.35949 13.50959 157 ft 16 kts 248°
2026-05-05 06:58 52.35892 13.50792 154 ft 12 kts 209°
2026-05-05 06:58 52.35804 13.50746 150 ft 18 kts 221°
2026-05-05 06:58 52.35749 13.50507 148 ft 23 kts 245°
2026-05-05 06:59 52.35698 13.50302 148 ft 16 kts 249°
2026-05-05 06:59 52.35664 13.50160 148 ft 11 kts 249°
2026-05-05 06:59 52.35644 13.50076 148 ft 5 kts 249°
2026-05-05 06:59 52.35626 13.49996 148 ft 14 kts 249°
2026-05-05 07:00 52.35574 13.49772 148 ft 30 kts 250°
2026-05-05 07:00 52.35478 13.49323 149 ft 52 kts 251°
2026-05-05 07:00 52.35346 13.48832 148 ft 31 kts 248°
2026-05-05 07:00 52.35280 13.48544 149 ft 22 kts 243°
2026-05-05 07:01 52.35202 13.48488 148 ft 8 kts 188°
2026-05-05 07:01 52.35183 13.48485 149 ft 0 kts 179°
2026-05-05 07:01 52.35136 13.48520 151 ft 19 kts 144°
2026-05-05 07:01 52.35091 13.48718 155 ft 15 kts 99°
2026-05-05 07:02 52.35079 13.48837 157 ft 7 kts 99°
2026-05-05 07:02 52.35074 13.48884 157 ft 3 kts 99°
2026-05-05 07:02 52.35067 13.48967 157 ft 17 kts 94°
2026-05-05 07:02 52.35136 13.49322 159 ft 59 kts 68°
2026-05-05 07:03 52.35358 13.50283 157 ft 121 kts 68°
2026-05-05 07:03 52.35723 13.51860 297 ft 166 kts 70°
2026-05-05 07:03 52.36075 13.53646 1192 ft 159 kts 75°
2026-05-05 07:03 52.36112 13.55426 1872 ft 165 kts 117°
2026-05-05 07:04 52.35222 13.56621 2323 ft 181 kts 162°
2026-05-05 07:04 52.33961 13.57414 2690 ft 209 kts 154°
2026-05-05 07:04 52.32635 13.58778 3009 ft 240 kts 145°
2026-05-05 07:04 52.31425 13.60834 3535 ft 262 kts 115°
2026-05-05 07:05 52.31062 13.63737 4514 ft 266 kts 85°
2026-05-05 07:05 52.31515 13.66707 5333 ft 275 kts 72°
2026-05-05 07:05 52.32159 13.69688 6199 ft 280 kts 71°
2026-05-05 07:05 52.32776 13.72737 7016 ft 285 kts 76°
2026-05-05 07:06 52.32924 13.75951 7804 ft 287 kts 95°
2026-05-05 07:06 52.32760 13.79233 8540 ft 293 kts 96°
2026-05-05 07:06 52.32616 13.82583 9357 ft 297 kts 95°
2026-05-05 07:06 52.32511 13.85983 10103 ft 302 kts 95°
2026-05-05 07:07 52.32394 13.89432 10776 ft 308 kts 95°
2026-05-05 07:07 52.32253 13.93027 11106 ft 327 kts 96°
2026-05-05 07:07 52.32110 13.96852 11346 ft 348 kts 93°
2026-05-05 07:07 52.32526 14.00823 11794 ft 362 kts 67°
2026-05-05 07:08 52.33861 14.04231 12629 ft 363 kts 45°
2026-05-05 07:08 52.35976 14.06579 13246 ft 367 kts 19°
2026-05-05 07:08 52.38424 14.07346 13886 ft 365 kts 355°
2026-05-05 07:08 52.40955 14.06972 14497 ft 367 kts 349°
2026-05-05 07:09 52.43488 14.06367 15133 ft 370 kts 348°
2026-05-05 07:09 52.46048 14.05763 15765 ft 373 kts 349°
2026-05-05 07:09 52.48636 14.05243 16370 ft 377 kts 349°
2026-05-05 07:09 52.51251 14.04729 16962 ft 380 kts 349°
2026-05-05 07:10 52.53888 14.04166 17549 ft 384 kts 348°
2026-05-05 07:10 52.56547 14.03586 18135 ft 387 kts 348°
2026-05-05 07:10 52.59229 14.03022 18640 ft 391 kts 348°
2026-05-05 07:10 52.61935 14.02461 19105 ft 394 kts 348°
2026-05-05 07:11 52.64663 14.01883 19595 ft 396 kts 348°
2026-05-05 07:11 52.67409 14.01294 20065 ft 399 kts 348°
2026-05-05 07:11 52.70173 14.00705 20526 ft 402 kts 348°
2026-05-05 07:11 52.72966 14.00115 20982 ft 406 kts 348°
2026-05-05 07:12 52.75772 13.99519 21419 ft 409 kts 348°
2026-05-05 07:12 52.78607 13.98912 21850 ft 412 kts 348°
2026-05-05 07:12 52.81453 13.98304 22269 ft 415 kts 348°
2026-05-05 07:12 52.84328 13.97693 22676 ft 418 kts 348°
2026-05-05 07:13 52.87223 13.97079 23095 ft 421 kts 348°
2026-05-05 07:13 52.90135 13.96460 23490 ft 424 kts 348°
2026-05-05 07:13 52.93111 13.96419 23825 ft 433 kts
2026-05-05 07:13 52.96123 13.96993 24136 ft 437 kts
2026-05-05 07:14 52.99147 13.97601 24487 ft 439 kts
2026-05-05 07:14 53.02189 13.98152 24799 ft 440 kts
2026-05-05 07:14 53.05242 13.98684 25123 ft 443 kts
2026-05-05 07:14 53.08311 13.99253 25442 ft 445 kts
2026-05-05 07:15 53.11393 13.99844 25744 ft 447 kts
2026-05-05 07:15 53.14492 14.00420 26040 ft 449 kts
2026-05-05 07:15 53.17601 14.00984 26333 ft 451 kts
2026-05-05 07:15 53.20729 14.01563 26621 ft 453 kts
2026-05-05 07:16 53.23824 14.02148 26910 ft 455 kts
2026-05-05 07:16 53.26974 14.02736 27180 ft 457 kts
2026-05-05 07:16 53.30141 14.03323 27452 ft 459 kts
2026-05-05 07:16 53.33320 14.03916 27759 ft 460 kts
2026-05-05 07:17 53.36516 14.04517 28046 ft 462 kts
2026-05-05 07:17 53.39723 14.05118 28315 ft 465 kts
2026-05-05 07:17 53.42938 14.05723 28571 ft 466 kts
2026-05-05 07:17 53.46170 14.06330 28811 ft 468 kts
2026-05-05 07:18 53.49414 14.06941 29049 ft 470 kts
2026-05-05 07:18 53.52669 14.07556 29289 ft 472 kts
2026-05-05 07:18 53.55941 14.08174 29530 ft 474 kts
2026-05-05 07:18 53.59218 14.08793 29760 ft 475 kts
2026-05-05 07:19 53.62504 14.09001 29977 ft 469 kts 348°
2026-05-05 07:19 53.65690 14.08014 30149 ft 465 kts 342°
2026-05-05 07:19 53.68852 14.06784 30335 ft 466 kts 341°
2026-05-05 07:19 53.72013 14.05536 30548 ft 467 kts 342°
2026-05-05 07:20 53.75195 14.04336 30732 ft 469 kts 342°
2026-05-05 07:20 53.78387 14.03152 30913 ft 470 kts 342°
2026-05-05 07:20 53.81572 14.01937 31161 ft 469 kts 341°
2026-05-05 07:20 53.83686 14.01118 31350 ft 468 kts 341°
2026-05-05 07:21 53.86852 13.99899 31611 ft 468 kts 341°
2026-05-05 07:21 53.90033 13.98690 31859 ft 467 kts 341°
2026-05-05 07:21 53.93234 13.97651 32097 ft 472 kts 351°
2026-05-05 07:21 53.96544 13.97881 32337 ft 481 kts
2026-05-05 07:22 53.99773 13.99475 32519 ft 488 kts 16°
2026-05-05 07:22 54.02959 14.01528 32680 ft 489 kts 18°
2026-05-05 07:22 54.06128 14.03644 32910 ft 489 kts 17°
2026-05-05 07:22 54.09302 14.05703 33143 ft 488 kts 16°
2026-05-05 07:23 54.12479 14.07713 33364 ft 487 kts 16°
2026-05-05 07:23 54.15649 14.09751 33584 ft 487 kts 17°
2026-05-05 07:23 54.18807 14.11825 33792 ft 486 kts 17°
2026-05-05 07:23 54.21971 14.13892 33991 ft 486 kts 17°
2026-05-05 07:24 54.25089 14.15905 34174 ft 485 kts 16°
2026-05-05 07:24 54.28243 14.17950 34378 ft 484 kts 17°
2026-05-05 07:24 54.31386 14.20009 34547 ft 484 kts 17°
2026-05-05 07:24 54.34528 14.22071 34741 ft 483 kts 17°
2026-05-05 07:25 54.37677 14.24128 34914 ft 483 kts 17°
2026-05-05 07:25 54.43978 14.28258 35005 ft 488 kts 17°
2026-05-05 07:26 54.50311 14.32840 35038 ft 492 kts 19°
2026-05-05 07:26 54.56556 14.37352 35040 ft 489 kts 19°
2026-05-05 07:27 54.62784 14.42062 35042 ft 488 kts 19°
2026-05-05 07:27 54.69018 14.46672 35047 ft 487 kts 19°
2026-05-05 07:28 54.75234 14.51357 35045 ft 487 kts 19°
2026-05-05 07:28 54.81446 14.56007 35036 ft 486 kts 18°
2026-05-05 07:29 54.87785 14.59960 35037 ft 484 kts 15°
2026-05-05 07:29 54.94119 14.63908 35038 ft 483 kts 15°
2026-05-05 07:30 55.00467 14.67804 35036 ft 483 kts 15°
2026-05-05 07:30 55.09972 14.73720 35034 ft 484 kts 15°
2026-05-05 07:31 55.16309 14.77669 35038 ft 484 kts 15°
2026-05-05 07:31 55.22649 14.81639 35048 ft 484 kts 15°
2026-05-05 07:32 55.29002 14.85627 35035 ft 486 kts 15°
2026-05-05 07:32 55.35364 14.89636 35040 ft 487 kts 16°
2026-05-05 07:33 55.41756 14.93677 34969 ft 486 kts 16°
2026-05-05 07:33 55.44908 14.95679 34329 ft 481 kts 16°
2026-05-05 07:33 55.48037 14.97666 33933 ft 471 kts 15°
2026-05-05 07:34 55.54133 15.01538 33947 ft 473 kts 15°
2026-05-05 07:34 55.60421 15.05556 33948 ft 482 kts 16°
2026-05-05 07:35 55.66740 15.09605 33945 ft 490 kts 16°
2026-05-05 07:35 55.73163 15.13739 33945 ft 491 kts 16°
2026-05-05 07:36 55.79556 15.18033 33947 ft 492 kts 19°
2026-05-05 07:36 55.85761 15.23247 33942 ft 493 kts 22°
2026-05-05 07:37 55.91987 15.28314 33939 ft 491 kts 20°
2026-05-05 07:37 55.98197 15.33437 33934 ft 492 kts 21°
2026-05-05 07:38 56.04391 15.38577 33928 ft 490 kts 20°
2026-05-05 07:38 56.10587 15.43700 33924 ft 490 kts 21°
2026-05-05 07:39 56.16768 15.48872 33928 ft 490 kts 20°
2026-05-05 07:39 56.22956 15.54027 33926 ft 490 kts 21°
2026-05-05 07:40 56.29129 15.59224 33925 ft 489 kts 21°
2026-05-05 07:40 56.35296 15.64405 33922 ft 489 kts 21°
2026-05-05 07:41 56.41451 15.69618 33921 ft 488 kts 21°
2026-05-05 07:41 56.47593 15.74821 33918 ft 488 kts 21°
2026-05-05 07:42 56.53697 15.80021 33909 ft 487 kts 21°
2026-05-05 07:42 56.59822 15.85253 33906 ft 486 kts 21°
2026-05-05 07:43 56.65938 15.90499 33899 ft 485 kts 21°
2026-05-05 07:43 56.72038 15.95745 33897 ft 485 kts 21°
2026-05-05 07:44 56.78130 16.01011 33894 ft 484 kts 21°
2026-05-05 07:44 56.84208 16.06275 33892 ft 484 kts 21°
2026-05-05 07:45 56.90285 16.11564 33896 ft 484 kts 21°
2026-05-05 07:45 56.96368 16.16874 33892 ft 484 kts 21°
2026-05-05 07:46 57.02448 16.22202 33900 ft 484 kts 21°
2026-05-05 07:46 57.08529 16.27551 33887 ft 484 kts 21°
2026-05-05 07:47 57.14612 16.32919 33886 ft 485 kts 21°
2026-05-05 07:47 57.20706 16.38319 33889 ft 486 kts 21°
2026-05-05 07:48 57.26810 16.43745 33886 ft 487 kts 21°
2026-05-05 07:48 57.32922 16.49202 33882 ft 488 kts 21°
2026-05-05 07:49 57.39043 16.54684 33884 ft 489 kts 21°
2026-05-05 07:49 57.45170 16.60195 33877 ft 490 kts 21°
2026-05-05 07:50 57.51303 16.65728 33881 ft 490 kts 21°
2026-05-05 07:50 57.57440 16.71290 33867 ft 491 kts 21°
2026-05-05 07:51 57.63590 16.76881 33869 ft 492 kts 21°
2026-05-05 07:51 57.69739 16.82495 33870 ft 492 kts 21°
2026-05-05 07:52 57.75856 16.88100 33865 ft 493 kts 21°
2026-05-05 07:52 57.82022 16.93772 33865 ft 494 kts 21°
2026-05-05 07:53 57.88205 16.99480 33865 ft 495 kts 21°
2026-05-05 07:53 57.94388 17.05212 33857 ft 496 kts 21°
2026-05-05 07:54 58.00579 17.10972 33855 ft 497 kts 20°
2026-05-05 07:54 58.06749 17.16740 33673 ft 488 kts 20°
2026-05-05 07:55 58.09791 17.19594 32680 ft 489 kts 20°
2026-05-05 07:55 58.12822 17.22430 31975 ft 484 kts 20°
2026-05-05 07:55 58.15819 17.25251 31343 ft 478 kts 20°
2026-05-05 07:55 58.18781 17.28047 30647 ft 474 kts 20°
2026-05-05 07:56 58.21723 17.30821 30009 ft 469 kts 20°
2026-05-05 07:56 58.24627 17.33566 29275 ft 465 kts 20°
2026-05-05 07:56 58.27506 17.36294 28558 ft 460 kts 19°
2026-05-05 07:56 58.30356 17.39001 27863 ft 455 kts 19°
2026-05-05 07:57 58.33173 17.41679 27181 ft 451 kts 19°
2026-05-05 07:57 58.35966 17.44339 26588 ft 445 kts 19°
2026-05-05 07:57 58.38714 17.46963 25999 ft 440 kts 19°
2026-05-05 07:57 58.41434 17.49562 25431 ft 435 kts 19°
2026-05-05 07:58 58.44136 17.52146 24855 ft 433 kts 19°
2026-05-05 07:58 58.46824 17.54723 24279 ft 431 kts 19°
2026-05-05 07:58 58.49462 17.57259 23723 ft 429 kts 19°
2026-05-05 07:58 58.52152 17.59850 23106 ft 426 kts 19°
2026-05-05 07:59 58.54749 17.62355 22534 ft 421 kts 19°
2026-05-05 07:59 58.57348 17.64866 21998 ft 416 kts 19°
2026-05-05 07:59 58.59924 17.67356 21444 ft 412 kts 19°
2026-05-05 07:59 58.62473 17.69824 20905 ft 409 kts 19°
2026-05-05 08:00 58.64998 17.72276 20367 ft 405 kts 19°
2026-05-05 08:00 58.67502 17.74711 19838 ft 401 kts 19°
2026-05-05 08:00 58.69983 17.77125 19299 ft 398 kts 19°
2026-05-05 08:00 58.72440 17.79521 18777 ft 394 kts 19°